Novato, CA

12:39 PM PDT on July 23, 2017 (GMT -0700)
Gnoss

Weather History for KDVO - March, 2013

Change the Weather History Date:

Monday, March 25, 2013

  Actual Average (KAPC) Record (KAPC)
Temperature  
Mean Temperature 47 °F -  
Max Temperature 59 °F 67 °F 73 °F (2015)
Min Temperature 35 °F 43 °F 33 °F (2005)
Degree Days  
Heating Degree Days 18    
Moisture  
Dew Point 44 °F    
Average Humidity 88    
Maximum Humidity 100    
Minimum Humidity 63    
Precipitation  
Precipitation 0.00 in - - ()
Sea Level Pressure  
Sea Level Pressure 30.01 in    
Wind  
Wind Speed 3 mph (West)    
Max Wind Speed 16 mph    
Max Gust Speed 21 mph    
Visibility 9 miles    
Events Fog    
Averages and records for this station are not official NWS values.
T = Trace of Precipitation, MM = Missing Value Source: NWS Daily Summary

Daily Weather History Graph

Daily Weather History Graph

Search for Another Location

Airport or City:

Trip Planner

Search our weather history database for the weather conditions in past years. The results will help you decide how hot, cold, wet, or windy it might be!

Date:

Astronomy

Mar. 25, 2013 Rise Set
Actual Time 7:05 AM PDT 7:27 PM PDT
Civil Twilight 6:39 AM PDT 7:53 PM PDT
Nautical Twilight 6:08 AM PDT 8:24 PM PDT
Astronomical Twilight 5:36 AM PDT 8:56 PM PDT
Moon 6:05 PM PDT (3/25) 5:50 AM PDT (3/25)
Length of Visible Light 13h 14m
Length of Day
12h 21m
Waxing Gibbous, 97% of the Moon is Illuminated
Mar 25
Waxing Gibbous
Mar 27
Full
Apr 2
Last Quarter
Apr 10
New
Apr 18
First Quarter

Hourly Weather History & Observations

Time (PDT) Temp. Windchill Dew Point Humidity Pressure Visibility Wind Dir Wind Speed Gust Speed Precip Events Conditions
12:15 AM 44.6 °F - 44.6 °F 100% 30.02 in 10.0 mi Calm Calm - N/A   Clear
12:35 AM 41.0 °F - 41.0 °F 100% 30.02 in 9.0 mi Calm Calm - N/A   Clear
12:55 AM 44.6 °F - 44.6 °F 100% 30.01 in 10.0 mi Calm Calm - N/A   Clear
1:15 AM 42.8 °F - 42.8 °F 100% 30.02 in 10.0 mi Calm Calm - N/A   Clear
1:35 AM 41.0 °F - 41.0 °F 100% 30.01 in 10.0 mi Calm Calm - N/A   Clear
1:55 AM 42.8 °F - 42.8 °F 100% 30.01 in 10.0 mi Calm Calm - N/A   Clear
2:15 AM 41.0 °F - 41.0 °F 100% 30.01 in 8.0 mi Calm Calm - N/A   Clear
2:35 AM 41.0 °F - 41.0 °F 100% 30.01 in 10.0 mi Calm Calm - N/A   Clear
2:55 AM 41.0 °F - 41.0 °F 100% 30.00 in 8.0 mi Calm Calm - N/A   Clear
3:15 AM 41.0 °F - 41.0 °F 100% 30.01 in 8.0 mi Calm Calm - N/A   Clear
3:35 AM 41.0 °F - 41.0 °F 100% 30.00 in 10.0 mi Calm Calm - N/A   Clear
3:55 AM 41.0 °F - 41.0 °F 100% 30.00 in 10.0 mi Calm Calm - N/A   Clear
4:15 AM 41.0 °F - 41.0 °F 100% 30.00 in 10.0 mi Calm Calm - N/A   Clear
4:35 AM 37.4 °F - 37.4 °F 100% 30.00 in 5.0 mi Calm Calm - N/A   Clear
4:55 AM 37.4 °F - 37.4 °F 100% 30.00 in 0.8 mi Calm Calm - N/A   Mist
5:15 AM 39.2 °F - 39.2 °F 100% 30.00 in 1.2 mi Calm Calm - N/A   Clear
5:35 AM 39.2 °F - 39.2 °F 100% 30.00 in 0.5 mi Calm Calm - N/A Fog Fog
5:55 AM 37.4 °F - 37.4 °F 100% 30.00 in 2.5 mi Calm Calm - N/A   Clear
6:15 AM 37.4 °F - 37.4 °F 100% 30.01 in 6.0 mi Calm Calm - N/A   Clear
6:35 AM 37.4 °F - 37.4 °F 100% 30.01 in 1.0 mi Calm Calm - N/A   Clear
6:55 AM 37.4 °F - 37.4 °F 100% 30.01 in 8.0 mi Calm Calm - N/A   Partly Cloudy
7:15 AM 35.6 °F - 35.6 °F 100% 30.01 in 0.2 mi Calm Calm - N/A Fog Fog
7:35 AM 35.6 °F - 35.6 °F 100% 30.02 in 0.5 mi Calm Calm - N/A Fog Fog
7:55 AM 37.4 °F - 37.4 °F 100% 30.02 in 1.2 mi Calm Calm - N/A   Mostly Cloudy
8:15 AM 41.0 °F - 41.0 °F 100% 30.02 in 8.0 mi Calm Calm - N/A   Clear
8:35 AM 39.2 °F - 39.2 °F 100% 30.03 in - Calm Calm - N/A   Unknown
8:55 AM 42.8 °F 41.1 °F 42.8 °F 100% 30.03 in 6.0 mi NNE 3.5 mph - N/A   Clear
9:15 AM 44.6 °F - 44.6 °F 100% 30.03 in 7.0 mi Calm Calm - N/A   Partly Cloudy
9:35 AM 46.4 °F - 46.4 °F 100% 30.03 in 9.0 mi Calm Calm - N/A   Clear
9:55 AM 48.2 °F - 48.2 °F 100% 30.03 in 9.0 mi Calm Calm - N/A   Clear
10:15 AM 50.0 °F - 48.2 °F 94% 30.04 in - North 3.5 mph - N/A   Unknown
10:35 AM 50.0 °F - 48.2 °F 94% 30.04 in 10.0 mi NNE 3.5 mph - N/A   Clear
10:55 AM 51.8 °F - 48.2 °F 88% 30.04 in 10.0 mi SE 3.5 mph - N/A   Partly Cloudy
11:15 AM 53.6 °F - 48.2 °F 82% 30.04 in 10.0 mi SW 10.4 mph 16.1 mph N/A   Scattered Clouds
11:35 AM 53.6 °F - 46.4 °F 77% 30.04 in 10.0 mi SW 10.4 mph - N/A   Clear
11:55 AM 55.4 °F - 46.4 °F 72% 30.04 in 10.0 mi West 8.1 mph - N/A   Clear
12:15 PM 55.4 °F - 46.4 °F 72% 30.03 in 10.0 mi WSW 10.4 mph - N/A   Clear
12:35 PM 55.4 °F - 46.4 °F 72% 30.04 in 10.0 mi West 10.4 mph - N/A   Clear
12:55 PM 55.4 °F - 46.4 °F 72% 30.04 in 10.0 mi West 8.1 mph 16.1 mph N/A   Clear
1:15 PM 55.4 °F - 46.4 °F 72% 30.03 in 10.0 mi WNW 8.1 mph - N/A   Clear
1:35 PM 55.4 °F - 46.4 °F 72% 30.03 in 10.0 mi West 6.9 mph - N/A   Clear
1:55 PM 55.4 °F - 46.4 °F 72% 30.02 in 10.0 mi WSW 9.2 mph - N/A   Clear
2:15 PM 57.2 °F - 46.4 °F 67% 30.02 in 10.0 mi WSW 11.5 mph 16.1 mph N/A   Clear
2:35 PM 57.2 °F - 46.4 °F 67% 30.00 in 10.0 mi WSW 13.8 mph - N/A   Clear
2:55 PM 59.0 °F - 46.4 °F 63% 30.00 in 10.0 mi WSW 12.7 mph - N/A   Partly Cloudy
3:15 PM 59.0 °F - 46.4 °F 63% 30.00 in 10.0 mi WSW 16.1 mph - N/A   Clear
3:35 PM 55.4 °F - 44.6 °F 67% 30.00 in 10.0 mi WSW 12.7 mph 19.6 mph N/A   Clear
3:55 PM 55.4 °F - 44.6 °F 67% 30.00 in 10.0 mi WNW 6.9 mph - N/A   Clear
4:15 PM 55.4 °F - 44.6 °F 67% 29.99 in 10.0 mi WNW 5.8 mph - N/A   Clear
4:35 PM 55.4 °F - 44.6 °F 67% 29.98 in 10.0 mi NW 5.8 mph - N/A   Clear
4:55 PM 57.2 °F - 44.6 °F 63% 29.98 in 10.0 mi NNW 5.8 mph - N/A   Clear
5:15 PM 55.4 °F - 44.6 °F 67% 29.97 in 10.0 mi WSW 10.4 mph - N/A   Clear
5:35 PM 55.4 °F - 44.6 °F 67% 29.97 in 10.0 mi WSW 15.0 mph 19.6 mph N/A   Clear
5:55 PM 53.6 °F - 44.6 °F 72% 29.98 in 10.0 mi WSW 12.7 mph - N/A   Clear
6:15 PM 51.8 °F - 44.6 °F 76% 29.97 in 10.0 mi West 6.9 mph - N/A   Clear
6:35 PM 50.0 °F - 44.6 °F 82% 29.97 in 10.0 mi West 9.2 mph 16.1 mph N/A   Clear
6:55 PM 50.0 °F - 44.6 °F 82% 29.98 in 10.0 mi NE 4.6 mph - N/A   Clear
7:15 PM 50.0 °F - 44.6 °F 82% 29.98 in 10.0 mi North 3.5 mph - N/A   Clear
7:35 PM 50.0 °F - 44.6 °F 82% 29.98 in 10.0 mi North 6.9 mph - N/A   Clear
7:55 PM 48.2 °F - 44.6 °F 87% 29.98 in 10.0 mi NW 8.1 mph - N/A   Clear
8:15 PM 50.0 °F - 44.6 °F 82% 29.98 in 10.0 mi Calm Calm - N/A   Partly Cloudy
8:35 PM 50.0 °F - 42.8 °F 76% 29.97 in 10.0 mi NE 3.5 mph - N/A   Scattered Clouds
8:55 PM 48.2 °F - 44.6 °F 87% 29.97 in 10.0 mi NNE 4.6 mph - N/A   Scattered Clouds
9:15 PM 48.2 °F - 44.6 °F 87% 29.96 in 10.0 mi North 6.9 mph - N/A   Partly Cloudy
9:35 PM 48.2 °F - 44.6 °F 87% 29.99 in 10.0 mi SW 11.5 mph - N/A   Mostly Cloudy
9:55 PM 48.2 °F - 46.4 °F 93% 29.99 in 10.0 mi West 13.8 mph 20.7 mph N/A   Partly Cloudy
10:15 PM 48.2 °F - 46.4 °F 93% 30.00 in 10.0 mi West 11.5 mph 18.4 mph N/A   Partly Cloudy
10:35 PM 48.2 °F - 44.6 °F 87% 30.00 in 10.0 mi SW 3.5 mph - N/A   Clear
10:55 PM 48.2 °F - 46.4 °F 93% 30.01 in 10.0 mi ESE 4.6 mph - N/A   Clear
11:15 PM 48.2 °F - 46.4 °F 93% 30.01 in 10.0 mi Calm Calm - N/A   Clear
11:35 PM 46.4 °F - 46.4 °F 100% 30.01 in 10.0 mi Calm Calm - N/A   Scattered Clouds
11:55 PM 46.4 °F - 46.4 °F 100% 30.01 in 10.0 mi Calm Calm - N/A   Mostly Cloudy